Retour au catalogue

COSMOS 2310

ActifMilitairePO
NORAD 23526·PAYLOAD·🇷🇺 Russia

Lancé Mar 21, 1995 depuis Plesetsk Cosmodrome

Loading…

Prochains Passages (prochaines 24 heures)

TLE

FraisSource: Space-Track

Époque: Sep 14, 2026, 23:11 UTC

1 23526U 95012A   26257.96614214  .00000033  00000-0  19143-4 0  9998
2 23526  82.9421  82.6861 0023345  46.9701 106.6182 13.72340866576238

Suivez COSMOS 2310 en temps réel avec AllMySat

Download on the App Store